Location: Classun
(43.7108°N, 0.4123°W)
Time: 07:38:48
(UTC+00:00)

Daily predictions for brighter satellites

Satellite Brightness Start Highest point End
(mag) Time Altitude Azimuth Time Altitude Azimuth Time Altitude Azimuth
SL-16 R/B 3.9 18:47:48 10° N 18:51:19 16° NE 18:54:49 10° E
BlueWalker 3 3.6 18:50:18 10° SSE 18:52:45 16° SE 18:55:12 10° E
BREEZE M DEB (TANK) 3.5 18:50:55 10° W 18:53:43 30° NNW 18:55:46 10° NE
BREEZE-M DEB (TANK) 4.4 18:46:23 10° W 18:54:56 44° N 18:58:05 10° ENE
Cosmos 1674 3.1 18:53:44 10° NNW 18:57:26 65° W 19:01:07 10° S
Cosmos 1867 3.6 18:53:21 10° SSW 18:58:46 81° ESE 19:04:15 10° NE
Cosmos 2233 Rocket 4.4 18:55:01 10° N 19:00:47 40° ENE 19:06:34 10° SE
Cosmos 1864 Rocket 4.5 18:57:21 10° N 19:03:31 66° E 19:09:35 10° SSE
CSL-04 Rocket 4.4 18:58:37 10° SE 19:03:35 35° ENE 19:08:32 10° N
Cosmos 1459 Rocket 4.2 19:01:52 10° N 19:07:55 77° W 19:14:00 10° S
Cosmos 1626 3.9 19:05:11 10° NNW 19:08:27 34° W 19:11:42 10° SSW
Cosmos 1703 Rocket 4.2 19:04:23 10° NNW 19:08:45 60° W 19:13:04 10° S
Cosmos 1850 Rocket 4.0 19:03:45 10° NNW 19:09:06 71° ENE 19:14:25 10° SSE
USA 215 3.9 19:03:58 10° NE 19:10:22 58° NNW 19:16:44 10° WSW
Cosmos 1110 Rocket 4.0 19:05:55 10° S 19:11:03 65° ESE 19:16:12 10° NNE
JB-3 4.3 19:08:57 10° NNE 19:13:02 80° E 19:17:08 10° S
SL-4 R/B 2.5 19:12:05 10° SW 19:16:39 54° SE 19:21:10 10° ENE
Cosmos 1733 Rocket 3.6 19:14:58 10° SSE 19:18:50 33° E 19:22:44 10° NNE
NOSS 0 Rocket 4.0 19:13:16 10° NNW 19:19:28 82° WSW 19:25:37 10° SSE
Cosmos 1766 3.8 19:17:20 10° SSE 19:20:46 33° E 19:24:13 10° NNE
Resurs 01 Rocket 3.0 19:19:50 16° ESE 19:21:59 22° ENE 19:25:21 10° NNE
Cosmos 2237 Rocket 2.2 19:18:10 10° NNW 19:23:49 69° ENE 19:29:24 10° SSE
Cosmos 1331 Rocket 3.9 19:18:54 10° SSW 19:24:01 77° ESE 19:29:12 10° NNE
Cosmos 2061 Rocket 4.0 19:19:10 10° N 19:25:38 80° E 19:32:02 10° S
CZ-4 R/B 1.8 19:23:07 10° S 19:26:55 63° W 19:30:48 10° NNW
Resurs 1-3 3.8 19:23:03 10° SSE 19:27:17 51° ENE 19:31:32 10° N
Cosmos 1725 Rocket 4.0 19:21:04 10° N 19:27:17 87° W 19:33:30 10° S
Cosmos 1805 3.5 19:27:18 10° SSW 19:31:04 69° W 19:34:54 10° N
Cosmos 1452 Rocket 4.0 19:25:55 10° SSW 19:31:08 64° WNW 19:36:24 10° NNE
Feng Yun 1-1 Rocket 4.3 19:25:37 10° SSE 19:31:11 87° WSW 19:36:56 10° NNW
USA 281 3.9 19:26:40 10° NNE 19:33:05 58° WNW 19:39:28 10° SW
SPOT 1/Viking Rocket 4.2 19:30:09 16° SE 19:33:44 37° ENE 19:38:30 10° N
Intercosmos 25 Rocket 4.4 19:27:16 10° N 19:33:51 46° ENE 19:37:03 17° SE
YAOGAN 1 4.4 19:30:25 10° SSW 19:34:17 32° W 19:38:11 10° NNW
Cosmos 968 Rocket 3.7 19:30:03 10° N 19:35:03 49° ENE 19:38:31 19° SE
CZ-4B R/B 4.2 19:33:59 10° S 19:39:28 51° W 19:44:57 10° NNW
NOSS 3-4 (A) 3.3 19:36:02 10° SSW 19:41:29 58° ESE 19:47:20 10° NE
NOSS 3-4 (C) 3.3 19:36:11 10° SSW 19:41:36 57° ESE 19:47:26 10° NE
Landsat 5 4.0 19:38:16 10° NNE 19:41:50 32° E 19:43:42 22° SE
CSL-04 Debris 4.1 19:37:51 10° SSE 19:43:16 81° ENE 19:48:44 10° NNW
FALCON 9 R/B 4.1 19:13:30 10° WSW 19:44:20 58° S 19:50:25 22° ESE
USA 267 3.5 19:38:54 13° SE 19:44:51 68° SW 19:51:25 10° NW
IGS 5A 4.4 19:41:54 10° S 19:45:53 49° W 19:49:55 10° NNW
Cosmos 1980 3.9 19:40:22 10° NNW 19:46:04 76° WSW 19:51:43 10° SSE
Okean-O 2.6 19:46:16 19° SSE 19:49:20 62° ENE 19:53:43 10° N
Okean O Rocket 2.7 19:46:18 10° S 19:50:32 45° W 19:54:46 10° NNW
SJ 16-02 3.1 19:50:14 10° NNE 19:53:08 17° ENE 19:53:10 17° ENE
Lacrosse 5 rocket 2.8 19:49:10 10° WSW 19:53:11 38° NW 19:57:02 10° NE
Cosmos 2221 Rocket 3.6 19:50:28 10° N 19:54:50 58° E 19:56:56 28° SSE
CZ-4C R/B 3.7 19:50:12 10° NNW 19:56:43 39° NE 20:00:55 24° E
Ariane Rocket 4.2 19:59:14 23° ENE 19:59:41 23° ENE 20:03:38 10° NNE
CENTAUR R/B 4.4 19:52:36 10° NW 20:00:23 41° WSW 20:08:38 10° S
SWARM A 4.2 19:58:58 26° S 20:00:48 81° E 20:04:18 10° N
Cosmos 2297 Rocket 2.8 19:56:16 10° SW 20:01:49 59° WNW 20:07:25 10° NNE
SJ-6B 3.9 19:58:18 10° S 20:02:01 43° W 20:05:41 10° NNW
Cosmos 1271 Rocket 2.5 19:59:02 10° S 20:02:47 89° E 20:06:32 10° N
Meteor 1-15 Rocket 4.3 19:57:42 10° S 20:03:21 57° E 20:09:06 10° NNE
Cosmos 1464 Rocket 4.4 19:59:55 10° N 20:05:59 43° ENE 20:08:13 32° ESE
Meteor 1-24 Rocket 4.2 20:03:17 10° N 20:09:01 46° ENE 20:10:56 35° ESE
Cosmos 1447 Rocket 4.5 20:03:39 10° S 20:09:52 85° W 20:16:04 10° N
ISS -2.7 20:07:11 10° NW 20:10:17 34° NNE 20:10:26 34° NNE
Cosmos 2082 3.9 20:05:11 10° S 20:10:26 43° ESE 20:15:43 10° NE
Cosmos 1302 Rocket 4.0 20:06:28 10° SSW 20:11:46 86° WNW 20:17:06 10° NNE
Cosmos 1891 Rocket 4.4 20:09:40 10° N 20:15:50 66° E 20:18:57 31° SSE
Cosmos 2219 3.1 20:10:54 10° SSW 20:16:31 85° ESE 20:22:09 10° NNE
USA 186 3.9 20:14:34 11° SSW 20:17:07 25° W 20:19:47 10° NW
MetOp-A 4.3 20:16:25 42° ESE 20:17:22 47° ENE 20:22:17 10° N
Cosmos 1470 2.6 20:17:56 71° ESE 20:18:00 72° E 20:21:54 10° NNE
Cosmos 2227 Rocket 2.4 20:12:36 10° SSW 20:18:15 71° WNW 20:23:55 10° NNE
USA 238 DEB 4.4 20:22:35 10° NW 20:29:48 56° WSW 20:34:51 22° S
USA 238 4.4 20:22:40 10° NW 20:29:54 57° WSW 20:34:54 23° S
IRS-1C Rocket 4.3 20:27:25 26° S 20:30:24 68° WSW 20:35:42 10° NNW
ADEOS Rocket 4.0 20:29:34 31° ENE 20:30:26 32° ENE 20:36:31 10° N
Geosat 3.9 20:29:29 57° SE 20:30:26 76° ENE 20:35:28 10° NNW
BlueWalker 3 2.0 20:26:59 10° WSW 20:30:39 75° W 20:30:39 75° W
SL-16 R/B 2.1 20:30:37 10° NNW 20:36:20 84° ENE 20:37:33 57° SE
Meteor 1-12 Rocket 4.4 20:31:47 10° SSW 20:37:34 74° W 20:43:17 10° N
Atlas Centaur 2 4.2 20:35:17 10° SSW 20:35:39 11° SSW 20:35:39 11° SSW
Cosmos 1816 Rocket 4.5 20:40:05 53° E 20:40:13 53° E 20:46:10 10° NNE
Cosmos 1513 Rocket 4.4 20:35:43 10° N 20:41:50 86° W 20:44:15 40° S
H-2A R/B 3.5 20:44:38 39° NNE 20:44:38 39° NNE 20:47:46 10° N
Terra 3.4 20:48:27 23° NNE 20:48:27 23° NNE 20:50:51 10° N
MetOp-B 4.0 20:46:51 72° E 20:47:06 73° ENE 20:52:27 10° N
SPOT 3 Rocket 4.2 20:48:30 42° NE 20:48:30 42° NE 20:52:43 10° N
Cosmos 1992 Rocket 3.9 20:47:40 36° SSW 20:49:52 85° WNW 20:55:07 10° NNE
Meteor 2-5 Rocket 3.9 20:47:03 10° NNW 20:52:55 75° W 20:54:32 49° SSW
SL-4 R/B 3.2 20:51:38 10° W 20:56:07 45° NNW 20:56:45 42° N
Cosmos 1486 Rocket 4.0 20:51:42 10° NNW 20:56:42 74° NNE 20:56:42 74° NNE
Resurs 01 Rocket 2.8 20:57:21 35° SW 20:58:13 38° W 21:02:22 10° NNW
CARTOSAT-1 4.2 21:00:15 54° WNW 21:00:15 54° WNW 21:04:00 10° NNW
Cosmos 2263 Rocket 3.1 21:02:47 35° NE 21:02:47 35° NE 21:05:58 10° NNE
Cosmos 2034 Rocket 3.8 21:03:29 10° N 21:09:43 89° E 21:09:53 85° SSE
ATLAS 2AS CENTAUR R/B 4.5 21:18:46 19° NE 21:18:46 19° NE 21:20:39 10° NE
Tsikada Rocket 4.3 21:18:38 56° NNE 21:18:38 56° NNE 21:23:30 10° NNE
ERS-1 Rocket 3.9 21:22:31 41° N 21:22:31 41° N 21:25:49 10° N
SJ 16-02 3.1 21:27:40 10° NNW 21:30:05 30° NW 21:30:05 30° NW
SPOT 5 4.1 21:34:11 38° NNW 21:34:11 38° NNW 21:37:18 10° NNW
Lacrosse 5 rocket 4.1 21:30:39 10° NW 21:32:58 14° NNW 21:33:25 14° N
Ariane Rocket 4.1 21:39:24 41° WNW 21:39:24 41° WNW 21:43:14 10° NNW
Cosmos 1943 4.0 21:33:38 10° NNW 21:37:36 47° NNW 21:37:36 47° NNW
CZ-4C R/B 3.1 21:38:24 10° NW 21:45:48 67° WSW 21:46:05 67° SW
ATLAS 3B R/B 3.6 21:41:34 10° NNW 21:48:40 41° NE 21:48:41 41° NE
ADEOS Rocket 3.9 22:16:30 48° WNW 22:16:30 48° WNW 22:22:25 10° NNW
Terra 4.3 22:27:11 18° NW 22:27:11 18° NW 22:28:36 10° NNW
Cosmos 2344 4.2 22:30:22 10° NW 22:38:57 73° NE 22:38:57 73° NE
Cosmos 2263 Rocket 4.4 22:44:18 20° WNW 22:44:56 20° NW 22:48:57 10° N
ATLAS 2AS CENTAUR R/B 3.9 23:06:05 41° NNW 23:06:05 41° NNW 23:11:40 10° NNE
ATLAS 3B R/B 4.3 23:32:18 10° NW 23:35:56 30° NW 23:35:56 30° NW
